NKS2545 KSLC-KLAS

Flight info

Callsign NKS2545
Flight time 1h 0m
Altitude 36000
Route ARCHZ1 MLF STEWW CHOWW4
Aircraft A321/M-SDE3FGHIRWY/LB1

Departure

Time 2026-05-04 04:12
Airport Salt Lake City International Airport (KSLC)

Arrival

Time 2026-05-04 05:12
Airport Harry Reid International Airport (KLAS)
Time Latitude Longitude Altitude Speed Heading
2026-05-04 03:34 40.78812 -111.99052 4231 ft 0 kts 355°
2026-05-04 04:00 40.78799 -111.99051 4231 ft 4 kts 355°
2026-05-04 04:00 40.78778 -111.99049 4231 ft 4 kts 355°
2026-05-04 04:00 40.78754 -111.99050 4232 ft 4 kts 37°
2026-05-04 04:01 40.78737 -111.99069 4232 ft 3 kts 40°
2026-05-04 04:01 40.78734 -111.99072 4232 ft 0 kts 40°
2026-05-04 04:05 40.78737 -111.99071 4231 ft 1 kts 29°
2026-05-04 04:05 40.78742 -111.99077 4230 ft 1 kts 320°
2026-05-04 04:05 40.78736 -111.99097 4232 ft 5 kts 250°
2026-05-04 04:05 40.78728 -111.99166 4232 ft 8 kts 264°
2026-05-04 04:06 40.78724 -111.99244 4233 ft 9 kts 268°
2026-05-04 04:06 40.78722 -111.99328 4234 ft 9 kts 268°
2026-05-04 04:06 40.78718 -111.99418 4234 ft 10 kts 265°
2026-05-04 04:06 40.78667 -111.99467 4233 ft 13 kts 176°
2026-05-04 04:07 40.78553 -111.99454 4231 ft 18 kts 175°
2026-05-04 04:07 40.78427 -111.99440 4231 ft 19 kts 175°
2026-05-04 04:07 40.78287 -111.99424 4227 ft 22 kts 175°
2026-05-04 04:07 40.78138 -111.99406 4228 ft 19 kts 177°
2026-05-04 04:08 40.78018 -111.99435 4230 ft 17 kts 191°
2026-05-04 04:08 40.77894 -111.99431 4230 ft 18 kts 175°
2026-05-04 04:08 40.77771 -111.99417 4234 ft 17 kts 175°
2026-05-04 04:08 40.77663 -111.99405 4237 ft 15 kts 175°
2026-05-04 04:09 40.77575 -111.99394 4236 ft 6 kts 175°
2026-05-04 04:09 40.77553 -111.99394 4236 ft 5 kts 187°
2026-05-04 04:09 40.77541 -111.99400 4234 ft 0 kts 205°
2026-05-04 04:09 40.77533 -111.99409 4235 ft 3 kts 223°
2026-05-04 04:10 40.77522 -111.99460 4236 ft 9 kts 264°
2026-05-04 04:10 40.77521 -111.99507 4237 ft 3 kts 268°
2026-05-04 04:10 40.77528 -111.99535 4237 ft 6 kts 300°
2026-05-04 04:10 40.77581 -111.99558 4237 ft 11 kts 354°
2026-05-04 04:11 40.77831 -111.99591 4233 ft 71 kts 354°
2026-05-04 04:11 40.78541 -111.99672 4232 ft 131 kts 355°
2026-05-04 04:11 40.79627 -111.99795 4229 ft 180 kts 354°
2026-05-04 04:11 40.80900 -111.99977 4783 ft 182 kts 349°
2026-05-04 04:12 40.82049 -112.00658 5451 ft 185 kts 319°
2026-05-04 04:12 40.82751 -112.02141 5637 ft 203 kts 282°
2026-05-04 04:12 40.82928 -112.04072 5764 ft 223 kts 272°
2026-05-04 04:12 40.82989 -112.06200 5909 ft 241 kts 271°
2026-05-04 04:13 40.83021 -112.08514 6077 ft 263 kts 271°
2026-05-04 04:13 40.83047 -112.10965 6649 ft 270 kts 271°
2026-05-04 04:13 40.83072 -112.13459 7300 ft 273 kts 271°
2026-05-04 04:13 40.82902 -112.15957 7773 ft 284 kts 252°
2026-05-04 04:14 40.81957 -112.18255 8337 ft 289 kts 228°
2026-05-04 04:14 40.80578 -112.20198 8962 ft 292 kts 226°
2026-05-04 04:14 40.79163 -112.22145 9602 ft 295 kts 226°
2026-05-04 04:14 40.77728 -112.24102 10212 ft 300 kts 225°
2026-05-04 04:15 40.76063 -112.25908 10366 ft 321 kts 212°
2026-05-04 04:15 40.74018 -112.27284 10493 ft 340 kts 200°
2026-05-04 04:15 40.71694 -112.28083 10868 ft 350 kts 188°
2026-05-04 04:15 40.69267 -112.28554 11427 ft 354 kts 188°
2026-05-04 04:16 40.66817 -112.29043 12008 ft 358 kts 188°
2026-05-04 04:16 40.64345 -112.29551 12598 ft 361 kts 189°
2026-05-04 04:16 40.61853 -112.30064 13207 ft 363 kts 188°
2026-05-04 04:16 40.59347 -112.30577 13787 ft 366 kts 188°
2026-05-04 04:17 40.56826 -112.31112 14379 ft 368 kts 191°
2026-05-04 04:17 40.54347 -112.32025 14964 ft 371 kts 197°
2026-05-04 04:17 40.51884 -112.33042 15593 ft 372 kts 197°
2026-05-04 04:17 40.49406 -112.34059 16199 ft 374 kts 197°
2026-05-04 04:18 40.46916 -112.35077 16795 ft 376 kts 197°
2026-05-04 04:18 40.44418 -112.36097 17366 ft 378 kts 197°
2026-05-04 04:18 40.41900 -112.37123 17915 ft 380 kts 197°
2026-05-04 04:18 40.39371 -112.38154 18466 ft 381 kts 197°
2026-05-04 04:19 40.36830 -112.39189 19001 ft 383 kts 197°
2026-05-04 04:19 40.34277 -112.40231 19518 ft 386 kts 197°
2026-05-04 04:19 40.31710 -112.41281 20008 ft 388 kts 197°
2026-05-04 04:19 40.29120 -112.42336 20508 ft 391 kts 198°
2026-05-04 04:20 40.26517 -112.43395 21000 ft 393 kts 198°
2026-05-04 04:20 40.23928 -112.44450 21473 ft 396 kts 198°
2026-05-04 04:20 40.21292 -112.45523 21934 ft 398 kts 198°
2026-05-04 04:20 40.18657 -112.46645 22380 ft 399 kts 202°
2026-05-04 04:21 40.16153 -112.48223 22803 ft 400 kts 209°
2026-05-04 04:21 40.13696 -112.49960 23220 ft 402 kts 209°
2026-05-04 04:21 40.11229 -112.51703 23633 ft 404 kts 210°
2026-05-04 04:21 40.08749 -112.53449 24027 ft 405 kts 210°
2026-05-04 04:22 40.06257 -112.55199 24416 ft 410 kts 209°
2026-05-04 04:22 40.03750 -112.56963 24828 ft 408 kts 210°
2026-05-04 04:22 40.01257 -112.58727 25154 ft 409 kts 211°
2026-05-04 04:22 39.98740 -112.60493 25520 ft 412 kts 209°
2026-05-04 04:23 39.96211 -112.62260 25941 ft 412 kts 210°
2026-05-04 04:23 39.93689 -112.64017 26361 ft 411 kts 210°
2026-05-04 04:23 39.91165 -112.65781 26752 ft 411 kts 210°
2026-05-04 04:23 39.88635 -112.67549 27099 ft 413 kts 210°
2026-05-04 04:24 39.86095 -112.69323 27476 ft 414 kts 210°
2026-05-04 04:24 39.83554 -112.71096 27829 ft 415 kts 210°
2026-05-04 04:24 39.81007 -112.72877 28151 ft 416 kts 210°
2026-05-04 04:24 39.78455 -112.74662 28486 ft 417 kts 210°
2026-05-04 04:25 39.75896 -112.76447 28808 ft 418 kts 210°
2026-05-04 04:25 39.73327 -112.78234 29099 ft 419 kts 210°
2026-05-04 04:25 39.70748 -112.80017 29395 ft 421 kts 209°
2026-05-04 04:25 39.68032 -112.81474 29698 ft 425 kts 200°
2026-05-04 04:26 39.65174 -112.82334 29981 ft 430 kts 191°
2026-05-04 04:26 39.62196 -112.82784 30277 ft 432 kts 190°
2026-05-04 04:26 39.59210 -112.83222 30590 ft 432 kts 190°
2026-05-04 04:26 39.56223 -112.83666 30964 ft 431 kts 190°
2026-05-04 04:27 39.53246 -112.84112 31303 ft 430 kts 190°
2026-05-04 04:27 39.50271 -112.84558 31633 ft 430 kts 191°
2026-05-04 04:27 39.47297 -112.85007 31936 ft 430 kts 191°
2026-05-04 04:27 39.44325 -112.85452 32240 ft 430 kts 190°
2026-05-04 04:28 39.41348 -112.85895 32552 ft 430 kts 191°
2026-05-04 04:28 39.38372 -112.86338 32838 ft 431 kts 191°
2026-05-04 04:28 39.35395 -112.86779 33118 ft 431 kts 191°
2026-05-04 04:28 39.32419 -112.87217 33397 ft 430 kts 191°
2026-05-04 04:29 39.29445 -112.87653 33683 ft 430 kts 191°
2026-05-04 04:29 39.26474 -112.88093 33971 ft 430 kts 191°
2026-05-04 04:29 39.23502 -112.88539 34245 ft 429 kts 192°
2026-05-04 04:29 39.20539 -112.88981 34526 ft 429 kts 192°
2026-05-04 04:30 39.17617 -112.89415 34811 ft 427 kts 192°
2026-05-04 04:30 39.14666 -112.89852 35102 ft 427 kts 192°
2026-05-04 04:30 39.11722 -112.90285 35388 ft 425 kts 193°
2026-05-04 04:30 39.08786 -112.90715 35671 ft 424 kts 193°
2026-05-04 04:31 39.05855 -112.91142 35916 ft 424 kts 193°
2026-05-04 04:31 39.02934 -112.91568 35975 ft 421 kts 193°
2026-05-04 04:31 38.97128 -112.92418 35980 ft 419 kts 194°
2026-05-04 04:32 38.92286 -112.93133 35988 ft 418 kts 194°
2026-05-04 04:32 38.86510 -112.93983 36006 ft 417 kts 194°
2026-05-04 04:33 38.80742 -112.94828 35995 ft 417 kts 194°
2026-05-04 04:33 38.74975 -112.95676 36004 ft 417 kts 195°
2026-05-04 04:34 38.69204 -112.96520 36014 ft 417 kts 195°
2026-05-04 04:34 38.63467 -112.97348 36013 ft 417 kts 195°
2026-05-04 04:35 38.57701 -112.98182 36016 ft 417 kts 195°
2026-05-04 04:35 38.51933 -112.99016 36014 ft 417 kts 195°
2026-05-04 04:36 38.46174 -112.99852 36011 ft 417 kts 195°
2026-05-04 04:36 38.40419 -113.00681 36007 ft 416 kts 196°
2026-05-04 04:37 38.32178 -113.03157 36006 ft 399 kts 209°
2026-05-04 04:37 38.29578 -113.04399 35801 ft 398 kts 208°
2026-05-04 04:38 38.26989 -113.05625 35553 ft 397 kts 209°
2026-05-04 04:38 38.24406 -113.06845 35305 ft 395 kts 208°
2026-05-04 04:38 38.21837 -113.08059 35055 ft 393 kts 208°
2026-05-04 04:38 38.19270 -113.09273 34798 ft 392 kts 208°
2026-05-04 04:39 38.16722 -113.10481 34553 ft 390 kts 208°
2026-05-04 04:39 38.14189 -113.11679 34303 ft 387 kts 208°
2026-05-04 04:39 38.11667 -113.12872 34055 ft 386 kts 209°
2026-05-04 04:39 38.09155 -113.14064 33802 ft 384 kts 208°
2026-05-04 04:40 38.06655 -113.15250 33555 ft 383 kts 208°
2026-05-04 04:40 38.04163 -113.16431 33301 ft 382 kts 208°
2026-05-04 04:40 38.01677 -113.17604 33050 ft 381 kts 207°
2026-05-04 04:40 37.99194 -113.18770 32801 ft 380 kts 207°
2026-05-04 04:41 37.96720 -113.19929 32552 ft 378 kts 208°
2026-05-04 04:41 37.94264 -113.21079 32304 ft 375 kts 208°
2026-05-04 04:41 37.91820 -113.22227 32068 ft 374 kts 208°
2026-05-04 04:41 37.89417 -113.23357 31988 ft 372 kts 208°
2026-05-04 04:42 37.84546 -113.25653 32010 ft 374 kts 208°
2026-05-04 04:42 37.79668 -113.27948 32006 ft 374 kts 208°
2026-05-04 04:43 37.74773 -113.30237 32008 ft 375 kts 208°
2026-05-04 04:43 37.69885 -113.32511 32009 ft 374 kts 208°
2026-05-04 04:44 37.64994 -113.34789 32008 ft 375 kts 208°
2026-05-04 04:44 37.60114 -113.37073 32006 ft 374 kts 208°
2026-05-04 04:45 37.55235 -113.39353 31999 ft 374 kts 208°
2026-05-04 04:47 37.38129 -113.47284 31962 ft 376 kts 208°
2026-05-04 04:47 37.33221 -113.49551 31950 ft 375 kts 208°
2026-05-04 04:48 37.28316 -113.51812 31933 ft 376 kts 208°
2026-05-04 04:49 37.16382 -113.58219 31894 ft 371 kts 213°
2026-05-04 04:49 37.11735 -113.61052 31888 ft 372 kts 213°
2026-05-04 04:50 37.07054 -113.63817 31885 ft 371 kts 213°
2026-05-04 04:50 37.02360 -113.66556 31362 ft 376 kts 212°
2026-05-04 04:51 36.99971 -113.67955 30765 ft 375 kts 212°
2026-05-04 04:51 36.97639 -113.69318 30489 ft 367 kts 212°
2026-05-04 04:51 36.95329 -113.70647 30053 ft 363 kts 212°
2026-05-04 04:51 36.93041 -113.71957 29569 ft 360 kts 211°
2026-05-04 04:52 36.90768 -113.73269 29108 ft 359 kts 212°
2026-05-04 04:52 36.88511 -113.74579 28648 ft 357 kts 211°
2026-05-04 04:52 36.86268 -113.75891 28214 ft 355 kts 211°
2026-05-04 04:52 36.84036 -113.77197 27801 ft 353 kts 211°
2026-05-04 04:53 36.81817 -113.78494 27394 ft 351 kts 211°
2026-05-04 04:53 36.79610 -113.79779 26985 ft 348 kts 211°
2026-05-04 04:53 36.77433 -113.81045 26202 ft 342 kts 211°
2026-05-04 04:53 36.75284 -113.82297 25360 ft 342 kts 210°
2026-05-04 04:54 36.73164 -113.83537 24942 ft 340 kts 210°
2026-05-04 04:54 36.71029 -113.84781 24538 ft 338 kts 210°
2026-05-04 04:54 36.68910 -113.86015 24147 ft 335 kts 210°
2026-05-04 04:54 36.66807 -113.87236 23746 ft 332 kts 210°
2026-05-04 04:55 36.64715 -113.88445 23323 ft 330 kts 210°
2026-05-04 04:55 36.62635 -113.89648 22866 ft 329 kts 210°
2026-05-04 04:55 36.60579 -113.90861 22435 ft 325 kts 212°
2026-05-04 04:55 36.58731 -113.92426 22002 ft 319 kts 224°
2026-05-04 04:56 36.57234 -113.94433 21530 ft 315 kts 233°
2026-05-04 04:56 36.55902 -113.96601 21052 ft 315 kts 233°
2026-05-04 04:56 36.54576 -113.98754 20597 ft 313 kts 232°
2026-05-04 04:56 36.53250 -114.00902 20115 ft 313 kts 232°
2026-05-04 04:57 36.51925 -114.03044 19655 ft 312 kts 232°
2026-05-04 04:57 36.50602 -114.05179 19190 ft 311 kts 232°
2026-05-04 04:57 36.49281 -114.07307 18687 ft 311 kts 231°
2026-05-04 04:57 36.47961 -114.09428 18241 ft 310 kts 231°
2026-05-04 04:58 36.46647 -114.11537 17926 ft 305 kts 231°
2026-05-04 04:58 36.45360 -114.13605 17612 ft 301 kts 231°
2026-05-04 04:58 36.44085 -114.15651 17232 ft 298 kts 230°
2026-05-04 04:58 36.42818 -114.17681 16846 ft 296 kts 230°
2026-05-04 04:59 36.41558 -114.19700 16432 ft 295 kts 230°
2026-05-04 04:59 36.40301 -114.21716 16046 ft 294 kts 230°
2026-05-04 04:59 36.39053 -114.23715 15657 ft 293 kts 230°
2026-05-04 04:59 36.37799 -114.25698 15266 ft 291 kts 230°
2026-05-04 05:00 36.36545 -114.27666 14868 ft 290 kts 230°
2026-05-04 05:00 36.35307 -114.29599 14507 ft 289 kts 229°
2026-05-04 05:00 36.32826 -114.33485 13758 ft 286 kts 229°
2026-05-04 05:01 36.31592 -114.35416 13377 ft 285 kts 229°
2026-05-04 05:01 36.30367 -114.37334 12995 ft 283 kts 229°
2026-05-04 05:01 36.29145 -114.39248 12624 ft 282 kts 229°
2026-05-04 05:01 36.27925 -114.41152 12245 ft 281 kts 229°
2026-05-04 05:02 36.26710 -114.43043 11887 ft 281 kts 229°
2026-05-04 05:02 36.25498 -114.44932 11531 ft 279 kts 229°
2026-05-04 05:02 36.24287 -114.46809 11175 ft 278 kts 229°
2026-05-04 05:02 36.23075 -114.48668 10799 ft 277 kts 229°
2026-05-04 05:03 36.21867 -114.50517 10413 ft 276 kts 229°
2026-05-04 05:03 36.20665 -114.52354 10046 ft 274 kts 229°
2026-05-04 05:04 36.17088 -114.57827 8993 ft 270 kts 229°
2026-05-04 05:04 36.15912 -114.59629 8866 ft 270 kts 229°
2026-05-04 05:04 36.14729 -114.61442 8758 ft 271 kts 229°
2026-05-04 05:06 36.07370 -114.73808 7863 ft 246 kts 258°
2026-05-04 05:06 36.07318 -114.75935 7532 ft 248 kts 267°
2026-05-04 05:06 36.07333 -114.78054 7228 ft 246 kts 266°
2026-05-04 05:07 36.07336 -114.80156 6925 ft 244 kts 267°
2026-05-04 05:07 36.07340 -114.82250 6623 ft 243 kts 267°
2026-05-04 05:07 36.07344 -114.84330 6327 ft 241 kts 267°
2026-05-04 05:09 36.07365 -115.00501 3999 ft 217 kts 267°
2026-05-04 05:09 36.07367 -115.02308 3699 ft 204 kts 267°
2026-05-04 05:10 36.07368 -115.03970 3439 ft 185 kts 267°
2026-05-04 05:10 36.07369 -115.05476 3210 ft 168 kts 267°
2026-05-04 05:10 36.07369 -115.06845 3004 ft 154 kts 267°
2026-05-04 05:10 36.07368 -115.08145 2801 ft 149 kts 267°
2026-05-04 05:11 36.07367 -115.09419 2602 ft 148 kts 267°
2026-05-04 05:11 36.07366 -115.10687 2413 ft 147 kts 268°
2026-05-04 05:11 36.07368 -115.11957 2231 ft 148 kts 268°
2026-05-04 05:11 36.07367 -115.13205 2122 ft 135 kts 269°
2026-05-04 05:12 36.07365 -115.14166 2125 ft 87 kts 270°
2026-05-04 05:12 36.07361 -115.14712 2125 ft 48 kts 270°
2026-05-04 05:12 36.07362 -115.15079 2119 ft 36 kts 270°
2026-05-04 05:12 36.07399 -115.15340 2121 ft 26 kts 292°
2026-05-04 05:13 36.07465 -115.15501 2122 ft 16 kts 299°
2026-05-04 05:13 36.07513 -115.15592 2123 ft 8 kts 309°
2026-05-04 05:13 36.07551 -115.15640 2126 ft 7 kts 315°
2026-05-04 05:13 36.07597 -115.15695 2125 ft 12 kts 315°
2026-05-04 05:14 36.07664 -115.15777 2123 ft 15 kts 315°
2026-05-04 05:14 36.07755 -115.15825 2124 ft 14 kts 357°
2026-05-04 05:14 36.07857 -115.15826 2124 ft 15 kts 360°
2026-05-04 05:14 36.07966 -115.15826 2124 ft 17 kts 360°
2026-05-04 05:15 36.08082 -115.15827 2125 ft 16 kts
2026-05-04 05:15 36.08195 -115.15826 2127 ft 16 kts
2026-05-04 05:15 36.08308 -115.15823 2125 ft 13 kts
2026-05-04 05:15 36.08385 -115.15752 2125 ft 15 kts 46°
2026-05-04 05:16 36.08452 -115.15679 2126 ft 11 kts 24°
2026-05-04 05:16 36.08505 -115.15633 2121 ft 8 kts 70°
2026-05-04 05:16 36.08481 -115.15578 2119 ft 7 kts 121°
2026-05-04 05:16 36.08487 -115.15513 2117 ft 9 kts 46°
2026-05-04 05:17 36.08502 -115.15487 2116 ft 2 kts 56°
2026-05-04 05:17 36.08502 -115.15486 2116 ft 0 kts 56°